RH
43 39 34 29 25 23 23 26 29 33 37 39 40 42 43 43 43 43 40 39 35 31 32 35 40 48 48 43 44 47 53 52 37 24 23 24 24 25 26 26 28 30 32 33 34 34 34 36 35 34 35 36 39 42 44 47 48 49 49 48 51 57 55 50 50 47 42 44 48 48 52 62 70 74 71 61 54 51 50 50 51 49 48 45 42
49 50 49 44 40 34 25 24 29 34 36 39 42 44 44 44 44 43 41 40 38 36 38 39 47 56 53 46 46 48 52 53 39 26 25 25 25 26 26 28 31 33 36 37 38 39 41 43 43 41 42 45 48 50 50 50 49 48 48 47 50 57 56 52 59 65 55 43 42 46 50 56 62 67 65 58 53 51 47 45 45 45 43 42 40
54 54 55 53 52 44 30 23 29 36 37 37 40 43 46 47 44 42 42 42 44 45 43 42 52 62 55 47 46 45 47 49 39 27 25 26 27 28 28 30 34 37 39 40 42 43 44 46 48 48 48 49 52 54 55 56 57 58 58 57 56 57 57 55 58 65 64 55 48 45 48 53 57 60 60 55 51 49 48 47 46 44 41 39 37
54 55 57 56 54 49 37 28 29 33 34 36 39 39 42 46 46 43 41 45 55 57 51 48 55 64 60 49 43 40 41 43 37 28 27 28 29 31 32 34 37 39 39 41 42 43 43 45 48 49 49 50 53 56 57 57 59 60 60 62 62 61 60 60 61 64 66 65 59 53 52 54 56 60 60 56 52 51 51 50 48 44 40 37 34
52 54 58 59 57 57 53 47 46 42 33 31 36 39 40 41 46 49 44 48 64 69 64 61 60 62 63 54 43 37 37 39 36 30 29 32 34 36 38 40 39 37 36 36 38 39 40 42 46 48 49 50 52 51 50 49 51 54 55 56 58 60 61 63 66 68 66 63 61 59 56 55 58 61 60 57 57 57 53 48 45 43 38 37 40
49 51 56 59 58 60 63 63 63 60 52 42 35 36 42 44 47 52 48 51 64 71 73 75 71 68 65 55 44 37 36 38 37 33 34 37 39 43 46 46 42 37 33 32 33 35 38 42 46 48 49 50 50 47 44 42 44 49 55 58 57 55 55 57 63 70 72 66 61 60 59 56 53 55 57 58 60 62 58 50 47 46 42 42 48
46 48 52 54 53 55 63 68 68 67 69 65 49 38 41 46 51 51 47 50 61 72 80 82 81 78 69 58 47 38 37 41 39 37 40 43 47 52 55 53 49 43 38 34 34 35 37 40 42 45 50 54 57 58 54 48 44 46 50 55 56 53 51 49 52 64 76 73 64 62 63 57 49 51 59 60 57 59 60 55 50 49 47 46 45
43 46 48 49 50 52 59 69 74 72 72 73 67 56 48 47 54 55 51 54 63 74 84 84 83 82 72 63 55 43 39 44 43 42 47 51 55 60 64 63 61 57 50 43 40 38 40 42 44 50 57 62 65 66 61 53 49 48 49 50 51 54 56 53 49 58 73 75 68 64 63 60 55 54 59 62 60 61 66 63 52 47 50 50 46
36 37 39 40 42 46 49 58 70 77 78 75 70 68 64 60 61 61 60 64 68 73 77 77 79 80 72 66 59 46 41 45 45 45 50 57 62 66 72 75 74 70 63 56 50 46 45 48 51 56 62 69 76 75 64 56 52 51 50 50 51 56 61 60 54 57 71 75 68 65 64 64 63 59 59 63 65 65 70 68 54 45 48 50 47
27 28 31 32 34 37 40 47 58 68 77 80 76 76 79 77 75 72 67 68 69 70 73 76 78 77 73 70 60 47 44 48 49 48 52 60 67 71 78 83 83 80 74 70 65 57 52 52 53 59 69 81 88 82 68 58 53 52 52 50 52 57 62 62 57 60 72 75 69 66 65 64 65 64 63 65 65 64 68 69 62 56 55 52 46
31 32 33 34 35 37 39 46 51 53 63 78 86 88 87 85 85 82 79 78 75 71 74 80 80 74 71 73 65 52 50 52 52 52 54 62 70 75 81 86 89 87 83 81 79 72 65 59 54 59 74 88 90 79 66 55 49 48 51 53 55 58 61 61 60 66 75 77 74 70 64 60 61 61 63 65 63 61 62 64 66 66 65 62 55
37 37 36 36 37 36 37 41 47 57 72 85 94 94 86 84 85 79 77 83 83 78 77 79 82 77 72 73 69 60 57 59 58 56 56 63 72 79 83 88 91 92 91 90 89 87 83 76 66 62 72 85 85 72 57 46 41 43 50 55 55 58 62 62 62 71 79 81 83 75 62 56 55 56 62 63 54 48 49 55 62 67 69 71 66
37 37 38 40 40 39 42 47 59 78 86 81 82 81 74 77 81 74 70 72 72 76 83 85 85 80 73 72 72 68 67 66 66 62 60 65 74 80 84 88 91 94 94 93 93 94 93 89 79 71 71 76 74 63 49 39 36 41 50 54 52 54 61 62 64 76 85 89 89 76 58 50 48 49 54 51 41 39 47 57 67 71 69 65 58
40 41 42 46 47 47 50 53 61 73 73 68 71 73 72 78 78 73 73 69 63 70 82 87 85 77 71 73 74 74 74 73 71 69 66 68 75 81 84 88 91 93 93 93 95 96 96 95 89 80 78 79 74 63 48 38 36 42 49 53 51 50 54 59 66 77 87 93 88 70 53 48 48 46 45 41 39 45 56 68 74 72 64 54 46
38 39 40 41 42 44 43 41 43 50 59 69 72 67 69 73 66 60 62 62 62 66 73 83 86 76 70 71 72 75 79 78 76 74 71 72 76 79 83 85 89 92 92 94 97 95 96 98 94 89 88 87 81 66 48 39 39 44 50 54 54 52 55 63 72 81 89 90 77 59 50 49 48 47 45 44 46 55 70 80 77 70 61 48 40
25 27 27 26 26 28 29 32 38 43 50 56 53 48 53 55 51 50 51 54 63 71 73 80 84 79 73 72 73 78 80 78 77 75 74 75 75 76 80 83 86 89 93 98 99 93 90 92 90 88 86 84 78 65 48 40 43 48 53 57 58 60 64 70 78 85 88 80 63 51 50 51 50 51 53 54 57 69 83 82 74 70 64 50 39
17 17 16 15 16 17 18 22 28 32 34 34 34 40 49 51 51 53 55 61 72 79 80 80 80 78 78 76 77 82 81 77 77 76 75 77 76 75 76 77 82 88 94 99 96 87 85 89 90 87 83 79 74 61 46 43 47 51 57 63 66 69 71 75 81 83 76 63 53 51 53 54 55 56 59 65 73 84 88 79 71 70 62 49 39
27 26 25 24 22 21 21 20 20 23 27 31 37 45 51 56 59 58 60 67 73 76 80 83 83 83 80 77 79 82 78 75 75 74 75 77 77 77 77 78 81 85 89 92 88 82 84 89 90 88 85 79 70 55 46 47 51 55 63 71 74 73 75 82 83 74 63 54 50 51 55 57 58 56 56 58 65 74 77 73 70 64 52 45 39
36 34 31 29 30 30 28 27 26 29 35 42 47 49 53 62 66 64 64 68 69 69 72 79 88 89 81 78 80 77 72 73 75 76 78 79 79 78 79 79 81 84 89 87 79 76 82 86 87 86 82 72 60 51 49 51 53 60 71 75 74 74 80 85 77 64 57 52 47 49 55 58 58 53 47 42 41 46 51 56 62 58 46 39 37
34 32 28 27 30 32 33 35 39 44 49 53 51 51 59 69 68 63 65 69 68 65 63 70 85 89 82 78 76 71 70 74 77 79 83 85 84 82 80 80 82 86 87 78 68 71 80 83 81 78 70 60 53 51 51 51 56 67 75 74 73 80 87 83 71 61 54 46 42 48 54 56 55 49 43 37 33 33 33 36 44 44 36 32 35
30 27 28 31 33 36 39 46 54 58 59 58 56 59 69 70 62 59 65 68 66 62 60 66 78 84 80 73 68 67 72 75 76 79 80 79 81 82 80 76 72 70 69 64 64 72 77 74 70 66 59 54 53 52 50 52 61 72 74 73 78 87 89 82 70 60 48 38 39 46 50 52 51 45 39 34 29 27 24 23 25 25 24 30 35
29 26 30 36 41 45 49 54 60 61 58 56 59 67 75 69 58 60 68 69 64 60 60 64 69 70 67 63 63 66 69 71 72 75 76 77 79 77 70 60 53 53 58 61 64 67 67 63 60 56 52 52 51 50 50 56 66 72 71 74 85 93 93 84 70 54 41 33 35 41 44 46 43 37 32 26 20 18 16 15 15 14 18 26 31
35 32 35 36 39 49 56 58 58 56 55 57 61 70 75 67 59 64 70 69 64 61 60 62 63 60 57 58 62 63 64 67 71 76 81 82 73 61 53 50 51 55 59 60 59 58 57 55 53 50 49 50 49 50 54 62 68 68 68 78 93 99 95 82 63 48 39 34 33 34 36 35 33 28 24 18 13 11 10 10 10 11 14 18 25
40 41 41 35 35 48 56 55 53 52 55 60 65 73 74 63 59 67 72 69 66 63 61 60 59 57 57 58 59 62 67 70 70 73 79 73 59 51 52 55 57 56 55 55 55 55 53 50 48 48 49 49 49 52 58 63 65 64 71 85 97 98 88 72 57 49 42 35 31 30 30 30 29 24 16 10 8 7 8 9 9 10 11 13 28
43 43 41 37 41 50 52 49 50 55 61 66 72 79 76 63 60 68 71 70 67 63 63 64 61 59 60 60 64 70 71 63 58 62 68 63 56 58 61 60 58 56 57 59 61 60 56 51 48 48 49 50 52 55 58 60 63 69 80 91 95 89 77 64 60 60 52 40 30 28 29 30 26 18 10 6 7 7 7 8 7 8 9 17 42
36 36 42 47 49 50 49 53 59 63 68 74 80 85 79 68 66 71 72 70 68 64 63 64 63 63 64 66 72 73 61 49 52 63 67 63 61 64 65 62 61 61 63 67 70 69 63 54 47 47 48 50 54 57 58 59 64 74 87 92 89 81 72 67 68 70 65 52 37 28 29 29 21 12 6 5 6 6 6 6 6 6 11 28 56
32 40 52 54 48 47 53 63 68 68 72 80 85 87 81 71 68 71 71 69 67 66 67 68 68 69 70 72 74 68 54 52 63 71 67 63 64 67 67 67 69 71 72 74 77 75 66 56 49 48 47 49 54 58 60 62 68 79 90 91 85 77 72 70 70 71 69 59 41 31 30 25 15 8 5 4 5 5 4 5 5 5 17 42 68
43 52 55 48 44 50 62 71 72 70 76 84 82 80 79 72 66 69 73 72 70 67 66 69 72 73 75 78 74 60 50 54 61 60 57 59 63 68 71 73 76 77 77 78 77 72 63 56 52 49 49 54 59 60 62 68 75 83 89 88 82 77 73 72 72 71 65 53 39 31 27 19 10 6 4 4 5 4 4 6 5 7 28 58 79
50 51 46 44 51 62 69 73 71 70 79 86 76 67 67 63 54 55 61 67 72 74 73 75 78 78 79 78 66 50 44 47 49 49 54 62 69 73 76 76 76 75 75 74 69 63 58 54 52 51 53 59 62 62 68 78 84 87 88 86 82 79 76 75 72 66 56 44 34 27 20 11 6 5 3 3 5 3 4 6 4 11 41 72 87
48 46 45 50 62 71 71 70 69 72 82 82 64 49 48 43 36 38 43 46 54 63 67 67 66 65 64 59 48 40 43 46 47 51 60 69 75 77 75 73 73 73 72 69 63 58 56 54 52 54 60 65 67 70 76 85 88 88 88 86 82 79 75 72 65 56 46 36 27 18 11 6 5 5 3 3 4 3 5 6 6 20 54 81 87
45 48 52 56 61 64 63 64 67 73 78 72 55 44 42 40 37 39 40 39 40 44 45 43 40 37 36 37 40 45 48 48 48 53 61 70 75 73 72 74 75 73 69 66 62 58 56 56 58 64 69 72 75 78 82 86 88 86 83 79 75 71 68 62 54 45 36 25 16 10 7 5 4 3 3 4 3 4 5 5 10 36 71 89 89
48 55 60 57 53 50 51 57 65 70 72 69 65 61 58 52 48 44 40 41 43 43 42 43 42 39 38 43 51 54 51 49 51 55 61 68 71 72 77 81 79 72 68 65 62 59 60 63 68 73 76 77 78 79 80 80 78 74 70 68 66 63 58 51 43 34 24 14 9 6 5 4 4 3 3 4 3 4 6 6 18 52 83 93 91
52 58 58 53 48 46 47 51 58 66 73 76 77 77 71 61 53 46 42 42 44 46 48 53 57 60 60 59 57 54 50 51 56 59 65 70 74 79 84 84 77 72 68 65 63 65 69 74 77 78 77 75 72 69 67 65 62 60 60 61 60 54 48 40 31 22 13 7 6 5 3 4 4 3 4 4 3 6 6 5 24 64 89 90 89
53 54 52 48 45 43 43 44 46 56 72 80 81 81 78 67 55 47 43 45 50 54 58 62 66 68 65 58 52 51 54 59 63 68 74 80 83 87 87 82 75 72 69 66 68 73 76 78 77 75 72 68 63 59 56 54 53 54 56 56 52 45 38 30 20 12 7 5 5 4 3 4 4 3 5 5 4 7 8 5 23 62 86 84 83
56 55 54 50 45 41 40 40 41 51 70 84 87 84 77 66 56 49 46 49 56 59 62 65 68 66 60 55 55 58 62 66 71 78 83 86 89 91 87 79 74 73 70 69 73 77 78 77 76 74 70 65 60 57 54 51 51 51 51 49 44 36 27 18 11 7 5 4 4 4 4 4 4 5 6 6 5 7 8 7 20 50 75 81 81
67 66 64 59 52 45 41 42 45 54 71 86 90 82 68 58 54 51 48 50 54 57 60 64 64 60 57 58 60 64 67 70 76 83 86 88 90 90 84 77 73 73 73 73 76 80 81 81 81 78 73 66 62 57 53 49 48 47 46 42 34 24 15 9 6 5 4 4 4 4 4 5 6 7 7 8 7 7 7 9 14 31 58 77 81
79 78 71 64 58 53 49 45 44 48 59 70 73 66 57 53 52 51 50 52 54 57 61 63 61 61 65 67 67 67 68 72 77 81 82 84 88 88 83 77 74 74 75 76 79 84 86 85 84 80 73 68 65 58 48 42 42 45 43 35 23 12 6 4 4 4 4 4 4 5 5 6 8 9 8 9 9 7 7 9 10 22 51 77 83
79 80 75 69 63 58 52 45 41 41 45 50 51 49 49 51 53 54 56 58 59 60 62 62 60 61 66 68 68 69 70 75 80 82 81 83 87 88 84 78 75 76 79 80 83 86 87 85 83 79 74 72 67 55 39 32 36 42 38 25 12 5 3 3 4 4 5 5 5 6 7 7 8 10 9 9 10 9 8 9 7 15 40 65 74
82 83 79 73 64 56 52 48 45 45 45 46 48 51 54 57 59 61 61 60 59 61 62 60 56 53 53 56 61 67 73 80 84 83 82 85 88 88 84 79 76 77 81 83 85 87 86 84 82 79 75 73 68 52 33 25 31 34 26 12 4 2 2 4 4 4 5 6 6 7 9 9 10 11 10 9 11 10 9 10 8 7 16 32 47
84 80 75 70 63 57 55 52 50 51 54 57 60 62 63 63 63 62 61 60 61 62 61 57 53 50 51 56 63 70 77 82 83 81 83 88 90 87 82 79 78 80 84 85 86 87 86 84 83 80 76 74 69 52 30 19 21 20 11 3 1 2 3 4 5 4 6 7 8 10 11 11 11 12 11 11 11 11 10 10 10 8 7 11 24
79 76 76 74 69 64 61 61 61 63 66 69 70 70 68 67 67 65 65 65 66 64 61 57 54 56 60 64 67 71 77 81 83 83 85 88 88 84 80 80 83 87 89 89 88 87 85 84 83 80 75 74 70 52 26 11 9 7 2 -0 2 3 3 4 5 6 8 10 12 13 13 13 13 13 13 12 11 11 11 11 10 10 8 6 11
81 80 78 76 73 71 70 71 72 72 73 73 70 68 69 73 75 75 75 73 69 65 62 60 61 66 70 70 71 74 78 82 84 84 84 85 86 83 82 85 90 94 95 94 93 90 85 82 82 81 76 73 66 45 18 5 3 2 -0 1 2 3 4 6 6 9 12 14 16 16 15 14 14 13 13 13 12 10 12 12 11 11 10 8 7
85 83 81 80 79 78 76 76 77 78 79 76 68 63 65 70 71 71 70 69 67 65 65 66 69 72 72 70 71 76 80 80 79 78 80 83 84 82 82 84 86 86 86 84 79 72 64 63 69 76 75 68 55 32 11 2 2 1 -0 2 3 3 5 8 10 13 16 17 18 18 16 15 14 13 13 13 13 11 11 13 13 12 11 10 9
86 84 83 82 81 80 81 80 74 68 65 63 60 60 60 59 56 57 61 64 66 68 70 70 71 70 68 66 66 69 71 71 71 76 83 87 86 85 86 88 86 80 72 62 50 42 37 38 48 59 62 54 38 19 6 3 3 1 1 3 4 4 8 11 15 18 19 19 19 19 17 15 14 14 14 14 13 13 13 13 14 14 12 11 12
89 90 88 86 85 83 79 71 59 52 54 60 63 61 56 51 51 56 60 64 66 68 69 67 65 64 64 63 63 65 66 66 68 74 81 84 82 80 82 83 79 71 59 46 36 34 33 31 34 42 45 38 24 11 4 3 3 2 3 4 4 7 12 16 19 20 21 21 21 20 18 17 15 14 14 15 14 14 14 13 14 15 13 12 13
89 96 94 89 82 73 63 56 56 62 69 70 64 55 50 50 53 57 59 62 64 64 62 61 61 61 62 63 64 64 64 64 64 66 68 69 67 66 64 62 57 51 45 39 37 37 36 32 31 35 36 28 16 7 4 3 3 4 4 5 7 11 16 19 21 22 22 22 22 21 20 18 15 14 15 15 15 15 15 14 15 16 15 14 14
89 90 83 75 69 64 60 62 67 70 68 60 53 48 47 48 50 52 55 57 56 55 55 55 56 58 60 62 64 65 65 64 64 64 64 62 60 57 54 50 45 42 40 39 39 38 36 34 35 36 31 21 10 4 4 4 4 5 5 6 10 16 20 21 23 23 22 22 22 22 20 19 16 15 16 16 16 16 16 15 16 18 16 16 16
84 80 75 71 68 66 63 62 61 57 51 46 41 39 40 41 43 46 48 47 45 45 47 49 51 54 58 61 63 63 63 62 61 60 60 60 59 57 54 51 48 45 42 39 38 36 33 32 35 36 29 16 7 4 4 5 5 5 6 9 14 20 22 22 22 22 22 22 22 21 21 20 18 17 16 16 16 16 16 15 17 19 19 18 17
80 76 71 64 59 56 54 52 48 43 38 34 32 32 34 36 38 39 38 37 37 37 38 39 42 45 47 49 49 48 46 44 42 42 44 45 47 48 47 47 47 46 41 37 36 33 28 27 32 33 24 12 6 5 5 5 6 6 7 12 18 22 23 22 22 21 21 21 20 20 21 21 20 18 18 17 17 16 16 15 16 17 18 19 19
73 65 57 51 50 50 49 45 40 35 31 30 31 33 34 34 34 33 31 30 29 28 29 31 33 34 36 37 38 37 35 33 30 29 30 32 34 33 33 34 37 37 34 32 31 28 24 25 31 30 19 8 6 6 6 6 6 7 9 15 20 22 22 21 21 20 20 19 19 19 19 20 20 20 19 18 18 18 17 16 15 15 16 18 19
58 53 49 49 49 47 42 38 35 34 34 35 36 36 36 36 34 32 29 26 24 23 23 24 25 26 29 31 32 33 33 32 30 28 27 28 31 31 29 29 31 31 29 29 28 25 23 26 29 26 15 8 6 7 6 6 6 7 11 17 21 21 21 21 20 19 19 18 17 17 17 18 19 20 20 19 19 20 19 18 17 16 15 15 17
Wind_Speed
25 25 27 28 28 30 31 30 29 29 30 31 30 27 23 22 23 23 20 18 18 20 21 22 23 23 22 21 21 20 21 23 21 17 15 14 13 12 11 11 11 11 12 13 15 16 17 18 18 20 21 20 20 21 21 22 23 23 24 24 23 24 26 27 28 27 23 23 28 30 29 29 29 29 30 31 30 30 29 28 28 30 30 30 30
26 24 25 27 28 30 31 31 32 32 32 33 33 29 25 24 25 22 17 18 21 22 22 22 23 23 22 22 22 21 22 22 21 18 16 14 12 11 11 10 10 11 11 12 14 16 17 18 18 19 20 20 20 21 22 23 25 25 26 26 26 25 25 26 27 28 25 22 24 28 30 31 32 31 31 31 31 30 30 29 29 30 31 31 31
26 25 26 26 28 31 33 34 35 34 34 36 36 35 31 28 27 23 19 20 21 20 22 23 23 22 21 23 24 23 22 22 20 18 16 14 12 11 11 10 10 11 11 13 14 16 18 18 19 20 20 20 20 22 23 24 25 26 26 27 27 26 26 26 26 28 28 24 22 23 27 30 31 31 31 31 31 32 32 30 30 31 32 32 33
26 27 28 29 31 35 36 36 36 37 39 40 40 41 40 36 32 29 26 24 20 19 22 24 24 22 20 22 25 24 23 22 20 18 17 15 12 11 10 10 10 10 11 13 15 17 18 19 19 20 20 21 21 22 24 25 24 24 24 25 27 27 27 28 28 29 30 29 25 23 24 27 30 31 31 32 33 34 34 33 32 33 33 33 34
26 27 29 31 34 37 37 35 36 38 40 41 43 45 45 43 40 37 36 31 25 24 26 26 26 25 22 22 25 24 23 22 19 18 18 16 13 10 9 9 10 10 12 13 15 17 18 19 19 20 20 21 21 23 24 25 25 25 25 25 27 28 29 30 30 31 31 32 30 27 26 26 28 30 30 32 34 35 34 35 35 35 35 33 34
26 26 28 32 34 36 37 37 37 38 37 39 45 48 48 46 43 42 42 39 33 31 30 28 28 27 24 23 25 25 23 22 19 16 17 17 14 10 8 8 9 10 12 14 15 16 17 18 19 20 20 20 21 23 25 26 27 27 28 27 28 29 30 31 32 33 34 34 33 31 28 26 27 29 29 30 33 34 35 36 37 37 36 34 34
24 24 26 30 30 30 34 40 41 38 39 40 42 47 50 50 48 46 46 44 41 37 33 31 32 31 27 25 25 25 24 23 19 16 15 16 15 11 9 9 10 11 13 14 15 16 17 18 19 20 21 22 23 25 28 29 29 29 29 30 31 31 31 32 33 35 35 36 35 33 31 29 28 29 29 30 33 35 36 38 39 39 37 36 36
21 21 23 25 25 24 29 38 42 42 44 45 43 44 48 52 54 51 50 51 46 37 33 33 34 34 31 27 26 26 25 24 20 16 15 17 16 14 12 11 12 13 15 16 16 17 17 18 20 21 23 25 25 27 30 32 33 33 31 32 32 32 31 32 33 35 35 36 35 33 31 30 28 28 30 31 33 34 35 37 40 40 39 39 39
20 19 20 21 21 22 24 30 37 43 47 49 48 47 46 51 54 50 50 53 44 32 31 33 32 32 30 28 27 27 26 24 20 18 17 18 18 17 16 15 15 16 17 17 18 18 19 20 22 24 26 27 27 28 31 33 35 36 34 33 33 33 32 32 33 34 34 35 35 33 32 30 29 29 31 31 32 34 35 37 40 41 41 41 41
17 18 20 20 21 23 24 26 30 36 41 45 47 47 48 51 47 40 45 51 44 36 38 40 36 33 32 29 27 27 27 24 22 21 21 20 21 21 19 19 19 19 18 19 18 19 20 21 23 26 27 28 29 31 33 34 36 37 36 35 34 34 33 33 33 32 33 34 34 34 34 31 29 30 32 32 33 35 36 37 39 40 41 43 43
18 19 22 24 25 27 27 28 29 30 34 39 43 45 48 49 42 35 40 47 45 43 46 46 41 38 36 33 30 28 26 23 23 24 24 23 23 24 23 23 23 22 21 20 20 20 21 23 25 27 28 30 31 32 35 37 37 37 36 35 34 34 34 34 33 32 32 33 34 34 34 32 30 31 32 33 35 36 37 38 38 39 40 43 45
21 22 24 26 28 29 28 29 30 33 36 40 42 44 43 40 33 28 32 39 41 44 48 48 46 42 39 37 33 29 25 23 23 26 26 26 26 26 26 26 26 26 25 24 23 23 24 25 27 28 29 31 33 35 37 38 38 37 36 35 34 34 34 34 33 32 32 34 35 35 34 33 34 33 33 35 37 37 37 37 38 40 40 41 45
24 25 26 26 27 29 30 31 33 36 39 37 34 32 30 27 24 22 24 28 31 38 46 48 46 44 43 42 37 34 29 25 24 26 27 27 28 29 30 29 29 29 28 27 26 26 27 28 28 29 30 33 35 36 38 39 38 37 36 36 36 35 33 32 32 31 33 35 37 36 34 34 36 35 34 35 38 38 37 37 38 40 40 42 45
26 26 26 27 29 30 32 34 35 37 36 30 25 24 22 20 20 22 21 21 24 28 39 47 47 43 43 44 41 39 36 29 25 26 28 29 30 32 33 33 32 32 31 30 29 29 30 31 30 30 32 34 36 37 39 39 39 38 37 37 36 35 33 31 30 30 32 35 36 36 34 34 36 36 35 34 36 38 38 39 39 40 42 44 45
28 28 28 29 31 33 34 36 37 37 33 26 23 24 22 20 22 23 21 21 22 21 27 40 46 42 41 43 42 42 39 30 27 27 29 30 33 35 35 35 34 34 34 33 32 32 33 33 32 33 34 35 36 38 39 40 40 39 38 37 36 34 32 30 29 30 32 33 34 35 34 34 34 35 34 33 34 36 38 39 40 42 45 46 45
23 24 25 27 29 32 34 35 37 37 33 28 26 24 21 21 21 21 21 22 23 20 22 32 40 41 40 42 42 41 35 28 28 30 30 30 33 36 36 35 36 37 36 35 33 33 34 35 35 36 37 37 38 39 40 40 40 40 40 38 35 33 32 31 30 30 31 32 32 34 34 33 33 33 32 32 33 35 39 40 40 44 47 48 48
15 17 20 24 27 29 31 32 34 35 34 32 28 23 21 21 21 22 23 23 23 22 22 26 33 37 39 42 44 40 31 29 29 31 31 32 35 35 35 35 37 38 37 35 32 32 35 36 36 37 38 39 40 40 40 40 41 41 40 37 34 32 31 31 30 28 28 30 32 32 32 32 32 32 31 32 33 35 38 40 41 45 48 49 49
14 16 19 22 24 26 28 29 31 32 31 29 26 24 23 23 23 24 25 25 24 23 22 25 32 37 41 43 43 35 29 29 30 31 34 35 36 36 38 38 39 39 39 38 34 33 35 37 36 37 39 40 40 40 40 40 40 40 38 36 36 34 31 28 27 26 27 29 31 31 31 31 32 32 32 33 34 35 38 41 43 46 48 49 49
17 18 20 22 23 25 27 28 29 29 27 25 25 26 27 25 24 24 25 24 23 21 21 23 30 37 41 44 40 31 28 29 30 32 34 35 37 40 43 42 41 41 42 40 35 33 35 37 36 38 39 39 39 39 39 40 40 38 37 37 37 35 30 26 25 26 28 29 30 30 30 31 32 33 33 34 35 37 39 41 43 46 48 48 47
20 20 21 22 23 25 26 26 26 25 24 24 25 27 25 23 21 21 21 21 19 17 17 18 25 34 40 40 35 29 28 30 31 33 35 38 39 42 44 44 44 44 42 37 32 31 34 35 36 38 38 38 39 39 39 39 38 37 37 38 37 33 28 26 26 28 29 29 29 29 30 31 32 33 34 34 35 38 40 42 43 45 46 46 45
20 21 22 22 24 25 25 23 21 20 22 24 24 23 21 19 19 18 17 17 15 13 12 14 21 29 32 30 28 28 29 31 32 34 37 41 43 44 44 43 39 36 33 30 29 31 33 34 35 36 36 37 38 38 38 37 37 37 38 38 34 29 27 27 27 29 30 30 29 29 30 31 33 34 34 35 36 38 40 40 40 41 42 42 43
18 19 20 21 23 24 23 20 18 19 22 23 22 20 18 17 16 15 15 16 13 9 8 12 18 22 23 23 25 28 29 31 33 35 38 41 42 40 36 32 27 25 26 27 28 30 31 32 34 35 36 37 37 37 37 36 36 38 38 35 30 27 27 29 29 29 30 30 30 30 30 32 33 34 35 35 36 37 38 37 36 37 37 38 39
23 22 23 25 26 26 23 21 20 20 21 20 19 19 17 15 13 13 14 14 11 9 9 13 16 18 20 22 25 29 31 33 35 36 35 32 30 27 24 22 22 23 24 25 26 28 30 32 33 34 35 36 35 35 35 36 37 37 35 31 28 27 28 29 29 30 30 29 30 30 30 31 32 33 34 34 34 34 34 34 33 33 34 34 34
30 30 30 31 30 27 24 22 20 18 17 16 17 17 16 12 10 11 13 13 12 10 11 14 17 19 21 25 29 31 32 33 34 33 28 24 22 21 21 21 21 22 23 24 26 28 30 32 33 33 34 34 34 34 35 35 37 36 32 28 27 27 28 28 28 29 29 29 29 29 29 31 32 33 33 33 33 32 32 31 30 30 31 31 30
30 31 30 29 27 24 21 19 16 13 12 12 13 14 12 8 8 10 12 13 13 13 14 16 19 22 25 29 30 29 29 28 28 25 23 21 21 21 21 21 22 23 24 25 27 29 30 31 32 32 32 33 33 34 34 35 36 33 30 28 27 27 27 27 28 28 28 28 28 28 29 31 31 32 32 31 31 31 31 30 29 29 30 29 27
29 28 25 22 21 18 16 14 12 11 9 8 9 9 7 5 6 8 11 13 14 16 18 21 24 26 28 28 27 26 26 24 22 20 21 21 21 21 22 23 24 25 26 28 29 30 31 31 31 31 32 33 33 33 34 34 34 31 28 27 27 27 27 27 27 29 29 29 29 29 30 31 31 31 30 30 30 31 31 30 30 29 28 26 26
25 22 20 18 16 15 13 11 10 9 7 6 7 7 5 4 4 5 8 12 16 18 21 23 26 27 27 27 27 28 27 23 20 20 21 21 21 22 23 24 25 27 29 31 31 31 31 31 31 31 32 32 32 32 33 33 31 29 26 26 27 27 27 27 28 30 30 29 29 29 30 31 31 30 29 29 30 30 30 30 29 28 26 24 26
20 18 17 16 16 15 13 11 10 10 7 5 5 5 4 3 3 4 7 13 18 21 23 25 27 28 28 29 31 31 27 23 21 21 22 22 22 23 24 25 27 29 31 32 32 32 32 32 31 31 31 31 31 31 31 30 28 26 25 26 27 27 27 28 29 30 29 29 28 29 30 30 30 30 28 28 29 29 29 28 28 26 23 23 26
18 18 18 17 15 14 12 12 11 10 7 6 4 3 2 2 3 4 6 11 16 21 25 27 29 30 31 32 32 27 23 21 21 22 23 23 23 24 25 27 28 29 31 31 32 32 31 31 31 31 30 29 29 28 27 26 25 24 24 25 26 27 27 28 28 28 28 28 28 29 29 29 29 29 28 28 27 28 27 26 25 23 20 21 25
19 19 18 16 15 14 14 13 12 9 8 8 6 5 6 6 5 4 4 6 11 16 20 24 27 29 30 29 26 21 19 20 22 23 23 23 24 25 27 28 29 30 30 31 30 30 30 29 29 29 28 27 25 24 24 24 23 24 24 24 25 26 26 26 26 26 27 27 27 28 28 28 28 28 28 27 25 25 25 24 22 20 19 20 24
19 17 14 12 13 14 13 13 13 11 9 9 8 8 7 7 6 5 5 7 9 13 16 18 21 23 24 22 19 18 20 22 24 24 24 25 26 27 28 29 30 30 30 30 29 29 28 27 27 26 24 23 22 22 22 23 23 23 24 24 24 24 24 24 24 25 26 26 26 26 26 27 27 26 26 25 24 22 21 20 19 17 17 20 24
16 15 13 11 12 13 12 11 12 11 9 8 8 8 8 8 8 9 10 10 11 13 15 17 18 20 20 20 19 20 22 23 24 25 25 26 27 28 29 31 31 30 29 29 28 27 26 25 23 22 21 21 21 22 22 23 23 24 23 22 22 22 23 23 24 24 25 25 24 24 24 24 24 24 23 24 22 20 19 17 15 14 15 18 21
14 13 12 11 12 12 12 12 12 10 8 7 7 7 8 10 11 13 14 14 14 15 16 18 18 18 18 19 21 22 22 23 24 25 26 27 28 30 31 32 31 30 28 27 26 24 22 21 20 20 20 20 21 23 24 24 24 23 21 21 21 21 22 23 23 24 24 23 22 22 22 21 21 21 21 21 21 20 19 16 13 12 14 17 19
13 12 11 10 11 13 13 13 11 9 7 8 9 10 11 13 15 17 16 15 15 15 16 18 19 18 19 20 21 22 23 23 25 26 27 28 30 31 32 31 30 28 27 25 23 21 19 19 19 20 21 22 23 23 24 24 23 22 21 20 21 21 22 22 22 23 22 21 20 19 19 19 18 18 18 19 19 19 18 15 12 11 14 16 19
13 12 11 10 12 13 14 13 12 10 10 12 13 15 15 16 18 18 16 14 14 16 18 19 19 20 20 21 22 22 24 25 27 27 28 29 31 31 31 30 28 27 25 23 21 19 19 20 20 21 22 22 23 23 23 23 23 22 21 21 21 21 21 21 21 21 19 18 18 17 17 17 16 16 17 17 18 18 17 15 12 12 13 15 18
15 14 13 12 13 13 14 14 13 13 14 16 18 19 18 18 19 19 17 17 19 22 22 21 21 21 22 22 23 24 26 27 28 28 29 30 30 30 30 29 27 26 24 22 20 19 20 21 22 23 22 22 23 23 24 24 23 22 22 22 21 21 20 20 19 18 17 16 15 15 15 15 14 15 16 17 18 18 17 15 14 13 13 14 16
17 16 15 14 14 15 16 15 15 15 16 17 19 20 20 20 21 21 22 23 25 26 24 22 22 23 23 24 25 26 27 28 28 29 30 30 30 29 28 27 26 25 23 21 20 20 21 22 23 23 23 23 23 24 24 24 23 22 22 21 21 20 19 18 17 15 15 14 14 14 14 14 14 14 15 15 16 17 17 16 15 14 13 14 14
17 17 16 15 16 17 17 16 16 16 16 18 19 20 21 22 23 25 26 27 27 25 23 22 23 23 23 23 24 25 27 28 28 29 29 29 28 28 26 25 24 23 21 19 19 19 20 22 23 23 23 23 24 24 24 24 23 22 21 20 20 18 17 15 14 13 13 13 13 13 14 14 15 16 15 15 15 15 16 16 16 14 13 13 14
18 17 17 18 19 18 17 18 18 18 18 19 21 22 23 24 26 27 27 27 26 23 22 23 25 26 25 24 24 24 26 27 27 28 28 27 26 25 24 24 23 21 19 19 19 20 21 22 23 23 23 24 24 24 24 22 21 21 20 19 18 16 14 13 12 12 12 12 12 13 14 15 16 17 17 16 15 15 14 15 16 15 14 13 14
16 16 18 21 22 21 20 21 21 22 21 22 22 22 24 25 25 26 26 25 23 22 23 25 26 27 26 25 24 23 23 24 25 26 25 25 24 23 23 23 22 21 20 20 20 21 22 23 24 24 24 24 24 24 23 21 19 19 18 17 15 14 12 12 12 11 11 11 12 13 15 16 17 18 18 17 15 14 13 13 14 16 15 14 13
19 21 22 24 24 23 23 24 25 24 22 21 20 21 22 23 24 24 24 23 23 24 25 26 26 25 24 24 23 21 21 23 23 24 23 23 23 22 23 23 22 22 21 22 22 23 24 25 25 25 24 23 23 23 21 19 17 17 16 15 13 12 11 11 11 11 11 12 13 14 15 16 16 17 17 16 15 14 13 12 13 15 16 15 14
24 26 26 27 28 28 28 27 25 22 20 19 19 20 21 22 22 22 23 23 25 26 26 25 24 23 22 22 22 21 21 21 21 21 22 22 22 23 23 22 22 22 23 23 25 26 26 27 27 26 24 23 22 21 19 17 16 15 14 13 11 11 10 11 11 11 12 12 14 14 15 15 16 16 16 16 15 14 13 12 11 12 14 14 14
30 31 31 32 33 34 31 25 18 17 19 21 21 21 23 24 23 24 24 25 26 26 25 24 22 21 21 22 21 20 20 20 20 21 22 23 23 23 24 23 23 23 23 24 25 25 25 25 25 24 23 22 20 19 17 16 15 13 12 11 10 10 10 10 10 11 12 13 14 15 15 15 15 14 14 14 14 13 13 12 11 11 12 13 13
31 32 33 34 33 31 26 18 13 15 20 22 23 24 27 27 27 26 26 26 25 24 23 21 21 20 20 21 20 20 21 22 21 22 22 22 22 24 25 25 26 25 23 22 22 22 21 21 21 21 20 19 18 17 16 15 13 12 11 10 10 10 10 10 11 12 12 13 14 14 14 14 14 13 13 13 13 12 12 11 10 9 10 11 12
30 32 35 35 32 25 19 15 14 16 20 24 26 28 29 28 27 26 26 24 23 22 20 19 19 19 20 20 21 21 22 22 22 22 23 24 25 26 26 27 27 26 23 21 20 19 19 19 19 18 17 16 16 16 15 14 12 11 10 10 10 10 10 10 11 12 13 13 14 14 13 13 13 12 12 12 12 11 11 10 9 8 8 9 11
32 31 30 28 25 20 16 15 16 19 23 27 28 28 27 26 25 24 23 21 20 19 19 19 19 20 21 21 22 22 22 23 22 23 24 26 26 26 26 25 25 23 21 19 19 19 19 19 18 16 15 15 15 15 14 13 11 10 10 10 10 10 10 10 11 12 13 13 14 14 13 13 12 12 11 11 11 11 10 9 8 8 7 7 8
30 25 20 18 17 15 15 16 19 23 25 26 26 25 24 23 22 20 20 19 19 18 18 19 19 20 21 22 22 22 23 23 23 23 24 24 24 24 23 23 22 21 20 20 20 20 19 19 17 15 14 14 14 14 13 12 11 10 10 10 10 10 10 11 11 12 12 13 13 14 13 13 12 11 11 11 11 11 10 9 8 8 7 6 7
21 17 15 14 14 15 17 19 21 22 23 22 22 21 20 19 18 17 17 17 17 17 18 18 19 20 21 21 22 22 23 23 23 24 24 24 24 23 22 22 21 21 20 20 20 20 19 18 16 14 13 13 13 13 12 12 11 10 10 10 10 10 11 11 11 12 12 13 13 13 13 13 12 11 10 10 10 10 10 10 9 8 7 6 6
14 14 15 15 16 17 18 18 18 18 18 18 18 17 17 16 16 16 16 16 17 18 18 19 19 20 21 21 22 22 23 23 23 24 24 25 24 24 23 22 22 21 20 20 20 19 18 16 15 13 13 12 12 12 12 11 10 10 9 10 10 10 11 12 12 12 12 13 13 13 13 12 12 11 10 10 10 9 9 9 9 8 8 7 5
16 17 17 16 16 15 15 15 15 15 15 15 15 15 15 15 15 16 17 18 18 19 20 21 21 22 22 23 23 23 23 23 23 23 24 24 25 25 24 23 22 21 20 19 19 18 16 15 13 13 12 12 12 11 11 11 10 10 9 10 10 10 11 12 12 12 12 13 12 12 12 12 12 11 10 10 10 9 9 8 9 8 8 7 7
16 16 16 15 14 14 13 13 13 13 13 13 14 14 15 16 17 19 20 21 21 21 22 22 23 24 24 25 25 25 25 24 24 23 23 23 24 25 25 24 23 22 20 19 18 17 15 14 13 12 12 12 12 11 11 11 11 10 10 10 10 10 11 12 12 12 12 12 12 12 12 12 11 11 10 9 9 10 9 8 9 8 8 8 7
Wind_Direction
234 237 240 242 245 246 245 243 244 246 246 245 244 242 243 250 255 256 261 271 280 287 293 296 297 299 297 295 298 302 305 309 310 303 296 297 299 298 297 299 303 305 308 310 308 307 306 304 303 301 300 303 307 309 310 308 306 304 303 302 302 301 301 301 300 299 299 300 299 299 297 295 294 295 294 295 295 296 295 294 292 290 288 286 282
242 246 248 248 250 252 250 247 246 246 244 241 239 236 239 247 249 246 253 267 274 281 286 288 293 297 294 290 292 296 299 303 304 297 291 290 289 289 291 294 299 302 305 306 304 303 303 302 301 300 301 307 312 313 311 309 307 304 302 301 300 299 298 299 300 298 298 297 295 297 297 296 295 296 295 295 295 296 295 294 293 291 289 287 285
249 252 254 254 254 253 249 245 242 241 239 237 236 240 248 253 248 242 247 257 262 272 276 279 288 294 289 285 287 290 292 295 296 291 286 285 285 286 291 294 298 303 305 305 304 302 302 301 299 301 306 312 315 315 314 312 310 307 306 304 302 300 298 297 299 299 300 298 294 292 294 294 294 296 296 295 294 294 293 293 293 291 289 288 287
251 253 256 258 257 253 248 246 244 243 242 242 242 246 253 256 251 244 245 251 259 269 272 274 283 288 283 281 283 283 285 287 287 284 282 283 284 285 290 296 301 305 307 305 303 302 301 300 301 305 311 315 316 316 316 313 311 311 311 310 307 303 299 297 299 300 300 299 298 296 293 292 293 294 295 295 295 294 294 296 295 292 289 289 289
253 258 261 262 261 259 256 254 254 251 248 247 248 250 253 256 255 249 246 248 257 269 276 277 279 283 281 277 277 277 278 279 278 278 281 284 284 282 286 296 303 307 309 306 303 303 302 303 306 310 313 315 315 316 314 311 310 310 310 311 310 306 302 299 299 299 299 299 300 300 297 294 293 294 295 296 297 297 297 298 297 294 293 293 292
257 261 263 264 265 267 266 262 259 259 257 252 248 249 253 257 254 247 242 246 252 263 276 279 275 277 276 271 272 272 271 272 271 270 278 284 284 280 283 295 304 309 311 310 308 307 306 308 310 312 311 311 313 313 312 309 308 307 306 307 308 307 305 303 300 298 298 298 300 301 300 298 296 296 296 298 300 301 301 300 298 296 297 297 294
256 260 264 266 267 273 272 264 262 266 266 259 248 243 248 255 255 248 245 247 249 254 268 275 271 270 267 264 266 266 265 268 268 266 275 284 284 279 281 292 300 308 314 316 315 314 312 312 310 309 308 309 310 311 311 310 308 306 304 304 305 305 306 305 303 299 297 298 300 301 302 301 300 299 299 301 302 303 303 302 299 298 299 298 295
254 258 262 266 268 273 272 266 266 268 268 264 255 246 246 250 251 247 245 249 252 256 268 275 269 263 260 259 260 259 260 264 264 264 273 280 281 279 280 288 296 304 313 318 320 318 314 311 309 308 306 305 305 309 312 312 309 307 306 304 304 305 305 306 304 300 297 297 299 300 301 302 302 301 301 303 304 305 304 302 300 300 300 299 297
249 252 255 261 267 269 270 270 269 269 268 267 262 257 255 252 249 247 252 260 265 270 276 275 265 257 254 255 255 254 256 260 260 261 269 275 278 280 281 287 292 298 306 313 318 317 312 310 310 307 303 301 302 308 314 313 310 308 307 306 304 304 305 305 303 299 296 296 298 300 300 301 304 302 301 302 304 304 303 301 300 301 300 298 299
249 253 257 263 266 267 270 275 274 273 274 274 271 269 268 267 266 269 272 271 270 271 272 269 261 254 252 252 252 251 253 255 255 258 265 271 276 279 281 285 288 290 297 303 309 312 308 305 305 302 299 299 301 306 310 311 308 306 306 306 306 305 304 304 302 298 295 296 299 301 301 302 303 299 299 301 303 303 301 300 301 301 301 300 300
261 261 264 266 267 269 272 276 278 277 276 276 275 272 272 276 284 290 283 272 264 263 267 268 262 257 256 253 246 243 248 251 252 257 264 268 273 277 278 280 282 285 288 292 299 305 304 301 301 299 297 297 298 301 306 308 306 305 304 305 305 304 303 303 301 297 296 297 301 302 303 303 300 298 301 302 301 300 299 299 300 300 300 301 302
260 261 265 267 268 272 275 278 280 277 272 269 270 273 278 285 288 284 278 273 264 256 258 264 265 260 257 252 242 236 240 247 249 254 259 266 271 273 274 275 277 280 283 286 291 297 300 302 303 301 298 297 297 300 304 305 305 305 306 305 304 302 301 301 299 297 297 299 301 302 303 303 300 301 302 300 298 297 297 297 297 296 298 300 301
254 257 260 264 268 271 274 279 283 282 280 281 285 290 294 291 284 278 278 281 277 261 253 258 263 258 253 252 246 239 236 236 242 249 254 262 267 267 269 271 272 275 280 283 288 292 296 298 301 300 297 296 297 300 303 304 305 306 307 305 303 301 301 300 296 293 295 298 299 301 302 302 301 301 300 298 297 297 296 296 295 296 299 301 302
256 258 261 264 268 271 272 277 282 286 291 297 302 302 296 289 293 298 295 296 296 276 256 254 255 251 249 250 249 249 247 236 234 244 249 255 260 262 265 269 271 276 281 283 286 291 293 293 294 296 296 296 297 301 303 304 304 306 307 305 303 302 301 298 292 290 293 295 296 298 300 301 300 300 300 299 297 296 296 296 296 298 301 302 303
265 266 268 270 271 273 275 277 282 288 294 297 296 297 298 302 311 314 312 309 304 287 264 255 249 243 246 248 249 260 263 243 230 240 247 251 257 261 266 271 274 279 283 285 286 292 295 292 290 294 297 297 298 300 302 302 303 305 306 305 304 303 300 294 290 292 294 294 294 296 299 300 300 300 300 298 295 295 295 295 298 301 302 303 305
273 273 274 276 276 277 279 281 284 290 296 299 301 303 306 309 314 317 319 315 301 283 267 257 246 241 245 246 251 265 265 237 228 242 247 250 258 263 268 273 275 279 284 287 288 291 295 293 290 293 296 297 297 298 300 300 302 304 304 304 304 302 297 290 290 294 294 292 294 296 298 300 300 300 299 297 295 295 294 296 300 301 302 304 306
285 286 285 285 284 284 286 287 288 290 293 297 302 306 310 312 319 323 321 314 299 279 261 249 242 240 241 245 256 264 249 226 233 245 247 252 259 264 269 272 274 276 280 283 285 288 291 290 289 292 293 294 295 296 297 299 300 302 302 302 303 302 296 292 292 293 292 292 295 297 297 297 297 297 298 297 296 296 295 297 300 299 300 303 305
293 292 292 292 291 291 291 289 289 290 292 296 301 308 313 315 319 324 322 314 301 282 260 242 236 236 238 245 257 255 231 226 241 247 248 255 260 264 270 271 272 274 274 276 282 287 287 287 288 290 291 292 293 295 296 297 298 299 300 301 302 302 298 293 292 293 293 295 297 296 294 294 294 296 297 298 298 296 294 295 297 297 299 301 303
300 299 300 300 299 296 291 287 287 289 293 299 304 309 314 317 321 323 320 311 299 282 264 245 233 230 235 246 253 242 225 233 245 248 255 266 268 269 270 271 272 274 275 277 281 284 284 285 287 288 289 291 293 293 294 295 296 297 299 300 301 301 299 295 294 296 297 298 297 294 292 292 293 295 296 297 297 296 295 295 296 296 298 300 302
304 304 304 304 303 299 293 290 289 290 294 300 305 308 313 318 322 321 315 307 299 287 274 254 233 230 238 246 245 232 228 238 245 250 262 271 274 273 272 274 275 276 276 279 281 281 282 284 286 288 290 292 292 292 293 294 295 296 297 299 300 299 298 298 299 301 301 300 297 293 292 292 293 294 296 297 298 297 295 295 294 295 297 299 303
306 307 305 303 302 300 298 294 292 294 298 301 304 308 312 315 320 321 314 308 305 297 281 255 236 233 237 239 232 227 234 244 249 255 264 269 274 276 275 276 278 277 277 280 281 281 283 286 288 290 291 291 291 291 292 293 294 295 296 297 297 297 298 299 302 304 304 302 298 295 293 293 293 294 296 297 297 296 294 294 294 295 298 302 306
300 309 310 306 302 299 297 295 295 299 301 302 303 304 305 311 320 321 312 307 306 298 271 247 235 230 228 226 227 235 247 254 256 263 269 271 275 278 278 279 282 282 281 281 283 285 287 288 289 290 290 290 291 291 292 293 294 295 295 295 295 296 299 301 304 306 305 302 299 297 295 294 294 295 297 297 297 296 296 296 296 298 301 305 309
288 298 306 308 303 297 292 293 299 302 301 301 302 301 302 312 323 318 307 304 300 282 256 244 238 232 228 229 237 248 258 261 264 270 273 275 279 283 286 287 286 284 284 286 288 290 290 289 290 290 290 290 290 290 292 293 294 294 294 295 295 296 298 301 305 306 305 303 301 299 298 297 298 299 300 300 301 300 298 298 300 303 306 307 310
287 291 296 297 292 288 288 292 296 299 302 304 304 302 304 315 322 312 299 295 288 266 248 246 244 239 238 242 249 256 262 266 269 271 272 277 286 292 293 290 287 287 290 292 293 293 292 291 291 290 289 289 289 290 292 293 293 293 294 295 295 295 297 301 304 305 305 305 304 302 301 301 303 305 305 305 304 302 302 303 306 310 310 310 312
294 294 293 286 280 281 286 289 291 295 301 306 307 305 307 316 316 299 287 284 279 262 251 251 248 246 250 253 256 262 268 270 270 269 271 281 290 293 293 292 291 292 293 294 295 295 295 294 292 290 289 289 289 289 290 291 291 292 292 292 293 295 297 301 303 305 306 307 306 304 304 305 307 308 308 307 307 306 307 309 312 315 313 311 313
294 290 282 274 272 276 279 281 285 289 293 299 303 301 299 297 292 281 271 270 268 261 257 254 251 253 256 256 259 268 274 272 268 268 275 284 289 291 292 293 293 293 293 293 294 295 296 296 293 291 290 288 288 288 288 288 290 290 290 290 292 295 297 300 303 306 308 308 307 307 307 308 309 310 310 310 310 310 311 313 315 317 315 312 313
284 276 267 265 267 267 267 270 272 267 267 286 296 286 266 249 255 259 257 256 254 254 256 255 256 257 256 256 265 274 274 268 267 271 277 284 287 290 292 292 292 292 292 292 293 294 296 296 293 292 290 288 287 287 286 287 288 290 290 291 292 294 296 299 304 307 308 309 308 308 309 310 311 312 312 312 312 312 313 314 315 318 316 314 317
271 264 260 263 264 262 260 254 244 235 234 256 274 259 245 250 237 220 236 244 244 247 253 257 260 260 256 260 270 274 271 269 272 276 280 284 288 291 292 292 293 292 292 293 294 294 295 294 293 292 290 288 286 286 286 287 289 292 294 293 293 295 298 301 305 307 309 309 309 310 311 311 312 313 314 314 313 313 313 314 315 318 318 316 321
259 257 258 260 261 260 253 235 225 223 220 222 229 212 180 179 184 195 223 238 243 248 253 258 261 261 261 266 271 272 271 274 279 281 283 287 291 294 295 295 295 295 295 296 296 295 293 292 291 290 288 287 287 288 289 291 294 297 298 297 298 300 302 304 307 308 309 310 310 311 312 312 313 314 314 315 315 314 314 316 316 318 319 318 324
256 257 260 260 256 252 244 230 222 213 194 188 186 164 149 157 174 191 213 231 241 248 253 257 260 262 264 267 268 269 275 281 284 285 288 293 296 298 298 297 298 298 298 297 295 294 292 291 290 289 289 291 292 293 296 298 300 301 302 302 303 304 305 307 308 308 309 310 311 312 313 313 313 314 315 317 318 316 316 317 317 318 320 322 329
255 256 258 258 254 249 242 231 220 206 188 177 173 167 170 188 210 227 240 246 249 252 257 262 264 264 264 264 265 272 281 284 284 286 291 296 299 298 298 299 301 301 300 297 295 294 293 292 291 292 293 295 297 299 301 302 302 303 304 304 305 305 306 308 308 308 310 311 312 313 314 313 314 317 319 321 321 320 320 319 317 318 322 326 333
250 251 251 255 257 251 238 221 207 199 192 182 177 185 204 222 237 244 246 249 252 258 265 268 266 263 260 259 264 276 283 282 281 284 290 295 296 296 298 300 302 302 300 297 296 296 295 294 294 295 297 299 302 303 303 303 303 303 305 305 305 306 306 308 309 309 310 311 312 313 314 314 317 321 323 324 325 326 326 324 317 314 322 329 336
246 246 248 253 253 245 235 221 208 204 205 202 203 219 234 240 245 246 244 246 254 263 272 275 273 268 264 263 269 277 281 280 280 284 289 292 293 295 298 300 302 301 299 298 297 297 296 295 296 298 300 302 304 304 304 303 304 305 307 307 307 307 307 308 310 310 310 311 313 314 315 317 321 325 327 328 331 333 331 327 318 312 320 331 337
246 247 252 255 248 239 235 230 224 224 234 242 253 264 263 254 249 247 245 248 256 268 277 279 277 275 274 277 281 284 285 285 286 288 290 292 294 295 297 298 299 299 298 297 297 296 296 297 298 300 302 304 305 306 305 306 307 309 309 309 308 307 308 310 310 310 311 312 314 315 317 320 324 329 332 335 339 339 334 327 320 314 320 330 335
251 251 255 258 252 246 244 242 241 248 256 260 266 273 270 259 253 250 248 250 260 272 278 275 272 274 279 284 286 286 286 287 288 290 291 293 294 294 295 297 297 297 297 296 294 293 296 298 300 302 303 304 305 307 308 310 311 310 309 308 307 308 309 309 309 309 311 312 314 316 319 321 325 331 337 342 346 345 339 330 321 314 319 328 333
260 257 257 259 257 254 253 254 257 262 263 262 264 267 264 258 254 251 250 256 268 277 277 274 274 278 282 284 283 283 285 286 288 290 292 293 293 294 295 295 294 294 295 294 291 291 295 298 300 302 303 304 306 309 310 311 310 308 307 307 307 307 308 308 307 308 309 311 314 316 318 320 325 332 338 344 348 349 346 338 327 321 321 325 330
265 261 256 253 251 251 254 258 260 259 256 254 255 256 255 255 255 256 259 266 274 278 278 279 282 286 285 283 281 281 284 286 288 289 291 292 292 292 292 291 291 292 293 292 290 290 292 295 298 301 303 305 307 309 310 310 308 305 305 305 305 305 305 305 305 306 309 311 313 314 316 319 323 329 335 340 345 348 350 345 336 327 321 321 327
269 266 259 252 247 245 246 247 246 244 243 244 247 249 251 254 258 262 266 271 275 278 280 284 288 291 289 284 281 282 284 286 287 287 288 289 289 288 288 288 289 291 291 290 288 289 291 294 298 300 302 305 307 309 309 308 304 302 302 302 303 302 301 301 302 303 307 309 309 311 315 317 319 323 328 333 338 343 347 348 343 333 322 318 321
264 262 255 248 240 235 234 235 235 232 232 235 241 246 251 257 261 264 268 271 275 278 283 287 289 290 290 287 285 285 284 283 283 283 285 287 287 286 287 288 289 291 291 289 289 290 293 295 298 300 301 303 305 307 307 305 302 300 300 300 300 300 299 299 300 301 304 306 306 309 313 315 317 319 322 325 330 335 340 345 347 342 333 327 325
249 239 236 235 233 231 231 230 227 225 228 236 244 250 254 259 262 265 268 273 277 282 286 288 289 289 289 289 289 287 283 280 280 283 285 286 285 286 288 290 291 292 291 290 291 292 293 295 296 297 299 300 302 304 304 303 300 299 298 297 297 297 297 297 298 301 304 306 307 309 311 313 315 317 319 321 324 328 333 340 344 344 342 339 335
230 224 231 235 233 231 230 229 227 230 240 251 256 258 259 260 263 267 271 276 281 285 288 289 289 288 288 289 290 288 285 283 284 285 285 285 287 290 292 293 294 292 290 290 290 292 293 293 293 294 296 298 299 300 301 301 299 297 296 295 294 294 295 296 298 302 304 306 308 310 311 313 314 315 317 319 320 322 328 336 340 342 343 345 345
236 240 244 240 233 230 230 230 231 238 251 260 262 263 266 268 269 272 276 279 282 286 287 288 287 287 287 288 288 288 288 288 287 288 288 289 291 292 292 292 290 288 287 288 289 290 291 290 289 291 294 294 295 297 299 299 297 295 293 292 292 292 293 295 296 300 304 306 309 312 313 315 317 317 317 319 320 321 326 332 338 340 340 344 349
259 260 252 241 236 235 234 233 236 246 256 262 266 270 274 275 274 275 277 279 281 284 285 284 284 284 285 285 286 286 288 291 291 290 289 289 289 291 292 292 291 290 292 293 292 291 291 290 288 288 290 290 292 296 297 296 295 293 289 290 290 289 291 293 294 299 304 307 311 316 318 319 321 321 320 320 322 323 325 329 335 339 337 338 346
268 264 251 240 236 235 235 242 258 260 257 262 268 271 274 275 274 274 275 276 278 280 280 280 281 282 283 284 286 286 289 291 290 288 286 286 288 292 294 293 295 299 303 302 297 294 295 293 289 287 287 287 290 294 293 292 292 290 287 288 289 287 288 291 294 300 307 310 313 318 323 325 325 325 324 324 324 325 325 325 329 337 337 335 341
259 254 246 239 238 240 249 268 274 259 252 258 265 269 272 274 273 273 274 275 274 275 276 278 280 282 283 284 285 285 286 287 285 284 284 285 289 292 293 292 294 299 302 300 297 295 295 293 290 287 287 288 290 292 290 288 287 287 286 287 287 285 287 292 297 303 308 312 316 322 327 329 329 328 328 328 327 327 327 325 325 334 341 338 337
244 241 243 246 251 261 269 268 259 253 256 263 267 269 272 273 272 273 274 273 273 275 277 279 280 282 281 281 281 281 282 284 284 284 285 287 289 291 292 291 293 295 296 295 296 295 294 291 289 288 288 288 288 288 286 283 282 283 285 285 284 283 286 292 298 304 308 312 318 325 330 333 333 331 332 332 331 330 332 332 332 337 344 343 337
246 247 256 262 264 265 261 255 255 259 264 267 269 271 271 272 272 273 275 276 278 280 280 279 279 280 279 279 280 281 282 284 285 285 286 286 287 288 289 290 291 292 294 295 295 294 293 290 288 287 286 285 283 282 279 277 276 278 280 279 279 281 287 293 298 304 309 314 320 326 331 334 334 334 334 334 333 333 335 338 340 342 344 347 343
252 259 268 265 258 256 257 258 261 263 265 266 268 269 270 272 275 278 280 282 283 283 282 281 280 279 279 280 281 282 282 283 283 282 282 283 284 286 288 290 291 293 295 296 295 294 292 288 284 283 282 278 275 275 274 272 273 276 276 274 274 279 286 293 298 304 310 315 319 324 329 332 333 335 335 334 334 336 337 340 344 346 347 351 350
257 262 264 262 260 260 260 260 260 261 263 265 268 270 274 278 282 283 284 285 284 283 283 281 280 279 278 279 279 280 281 281 281 282 282 283 284 285 287 288 290 293 296 296 295 293 290 285 280 278 274 269 268 269 270 270 273 275 272 270 273 278 285 293 299 305 310 314 318 322 326 328 331 335 335 333 335 337 338 341 347 350 351 356 359
260 263 265 266 266 265 264 264 266 268 270 273 277 281 284 287 288 287 287 286 285 283 282 281 279 278 277 276 276 278 279 280 281 282 283 283 284 285 286 288 291 293 296 296 293 290 286 281 275 271 267 263 263 267 270 271 274 273 267 266 271 278 285 292 299 305 310 313 316 320 322 325 329 333 333 332 334 337 340 345 351 352 353 358 4
262 265 267 269 270 271 272 273 274 276 278 281 283 285 287 287 287 287 286 285 284 283 282 280 279 277 276 275 275 276 277 278 280 281 282 284 284 284 285 286 289 291 293 292 289 285 281 276 270 266 263 261 261 265 270 272 272 269 264 263 268 276 284 292 299 305 310 313 315 317 319 321 325 329 332 331 332 334 339 345 350 354 356 358 2